Location: Recife
(8.0585°S, 34.8848°W)
Time: 09:47:51
(UTC-03:00)

Altair - Pass Details

Date: 22 April 2026
Orbit: 1501 x 1682 km, 47.2° (Epoch: 11 May)

Event Time Altitude Azimuth Distance (km) Brightness Sun altitude
Rises 17:52:44 0° 352° (N) 4,713 10.3 -10.1°
Reaches altitude 10° 17:57:05 10° 9° (N) 3,703 9.5 -11.2°
Maximum altitude 18:03:07 19° 51° (NE) 3,027 8.7 -12.7°
Enters shadow 18:07:09 14° 81° (E) 3,330 8.7 -13.6°
